Location: Berduj
(43.0019°N, 22.3781°E)
Time: 06:06:49
(UTC+00:00)

ADEOS Rocket - Pass Details

Date: 19 October 2019
Orbit: 859 x 1306 km, 98.7° (Epoch: 16 November)

Event Time Altitude Azimuth Distance (km) Brightness Sun altitude
Rises 17:47:54 0° 17° (NNE) 4,296 6.3 -23.7°
Reaches altitude 10° 17:50:46 10° 22° (NNE) 3,300 5.6 -24.2°
Maximum altitude 17:58:15 54° 98° (E) 1,466 3.5 -25.6°
Drops below altitude 10° 18:05:08 10° 175° (S) 3,045 5.4 -26.8°
Sets 18:07:40 0° 180° (S) 3,942 6.1 -27.2°
